Weather reports worldwide

Advertisment
Lander/Hunt, United States of America (72576): temperature & dewpoint: 02.07.2020 08:00:00 - 08.07.2020 08:00:00 (MDT)Lander/Hunt, United States of America (72576): wind speed & gusts: 02.07.2020 08:00:00 - 08.07.2020 08:00:00 (MDT)Lander/Hunt, United States of America (72576): wind direction: 02.07.2020 08:00:00 - 08.07.2020 08:00:00 (MDT)Lander/Hunt, United States of America (72576): reduced air pressure: 02.07.2020 08:00:00 - 08.07.2020 08:00:00 (MDT)Lander/Hunt, United States of America (72576): visibility: 02.07.2020 08:00:00 - 08.07.2020 08:00:00 (MDT)
Date & Time tt [°C] td [°C] ff [km/h] ff [kn] fx [km/h] fx [kn] dd ppp [hPa] vv [km]
08.07.2020 08:00:00 15,6 -2,2 5 3 - - W 1008,8 16
08.07.2020 07:00:00 13,9 -1,1 5 3 - - NNE 1009,4 16
08.07.2020 06:00:00 14,4 -3,3 5 3 - - SSW 1008,9 16
08.07.2020 05:00:00 15,0 -3,3 0 0 - - N 1008,8 16
08.07.2020 04:00:00 12,2 -2,2 11 6 - - ESE 1008,3 16
08.07.2020 03:00:00 13,3 -1,7 9 5 - - E 1008,1 16
08.07.2020 02:00:00 - - - - - - - - -
08.07.2020 01:00:00 - - - - - - - - -
08.07.2020 00:00:00 20,6 -3,3 8 4 - - - 1005,9 16
07.07.2020 23:00:00 21,1 -2,8 5 3 - - N 1005,8 16
07.07.2020 22:00:00 24,4 -3,3 8 4 - - - 1005,3 16
07.07.2020 21:00:00 25,6 -3,3 26 14 52 28 WSW 1004,5 16
07.07.2020 20:00:00 27,8 -2,8 31 17 57 31 W 1004,5 16
07.07.2020 19:00:00 28,9 -1,7 29 16 57 31 WSW 1003,2 16
07.07.2020 18:00:00 30,6 -2,2 37 20 61 33 W 1003,1 16
07.07.2020 17:00:00 31,7 -2,2 44 24 72 39 W 1002,5 16
07.07.2020 16:00:00 33,3 -5,0 37 20 68 37 WSW 1001,8 16
07.07.2020 15:00:00 33,3 -4,4 42 23 78 42 SW 1001,6 16
07.07.2020 14:00:00 33,3 -5,0 39 21 76 41 SW 1001,2 16
07.07.2020 13:00:00 32,2 -2,8 37 20 74 40 SW 1002,0 16
07.07.2020 12:00:00 32,2 0,6 - - - - - 1002,2 16
07.07.2020 11:00:00 26,7 9,4 11 6 - - NNW 1003,9 16
07.07.2020 10:00:00 23,3 9,4 5 3 - - N 1004,8 16
07.07.2020 09:00:00 21,7 9,4 9 5 - - NNW 1005,8 16
07.07.2020 08:00:00 20,0 9,4 9 5 - - NW 1006,0 16
07.07.2020 07:00:00 18,3 8,3 18 10 - - NW 1006,4 16
07.07.2020 06:00:00 18,3 5,6 18 10 - - NW 1006,3 16
07.07.2020 05:00:00 18,9 5,6 13 7 - - NW 1006,4 16
07.07.2020 04:00:00 21,1 1,7 5 3 - - - 1006,8 16
07.07.2020 03:00:00 20,6 1,7 13 7 - - E 1006,8 16
07.07.2020 02:00:00 22,2 -1,1 16 9 61 33 SE 1006,9 16
07.07.2020 01:00:00 21,1 -1,7 13 7 - - SW 1008,1 16
07.07.2020 00:00:00 22,8 -2,8 9 5 - - W 1008,6 16
06.07.2020 23:00:00 21,1 -1,7 5 3 - - S 1008,7 16
06.07.2020 22:00:00 24,4 -2,8 21 11 - - WSW 1007,9 16
06.07.2020 21:00:00 27,2 -2,2 9 5 - - WSW 1007,1 16
06.07.2020 20:00:00 31,1 -3,9 11 6 - - N 1006,6 16
06.07.2020 19:00:00 32,2 -3,9 18 10 - - WNW 1006,9 16
06.07.2020 18:00:00 33,3 -5,0 29 16 52 28 W 1006,3 16
06.07.2020 17:00:00 33,3 -3,3 41 22 57 31 W 1006,8 16
06.07.2020 16:00:00 33,3 -0,6 16 9 - - N 1007,3 16
06.07.2020 15:00:00 32,8 2,2 13 7 - - ENE 1007,6 16
06.07.2020 14:00:00 30,0 7,8 13 7 - - N 1008,9 16
06.07.2020 13:00:00 27,2 8,9 8 4 - - - 1010,5 16
06.07.2020 12:00:00 25,6 9,4 0 0 - - N 1011,5 16
06.07.2020 11:00:00 23,3 9,4 0 0 - - N 1012,4 16
06.07.2020 10:00:00 22,2 9,4 5 3 - - - 1012,9 16
06.07.2020 09:00:00 20,0 8,9 9 5 - - N 1013,2 16
06.07.2020 08:00:00 17,8 7,8 9 5 - - NNW 1013,0 16
06.07.2020 07:00:00 13,3 7,2 0 0 - - N 1013,2 16
06.07.2020 06:00:00 16,1 7,8 0 0 - - N 1012,4 16
06.07.2020 05:00:00 15,6 6,7 0 0 - - N 1012,1 16
06.07.2020 04:00:00 16,7 7,8 9 5 - - SW 1011,7 16
06.07.2020 03:00:00 17,8 5,6 13 7 - - WSW 1011,7 16
06.07.2020 02:00:00 19,4 5,0 11 6 - - SSW 1011,8 16
06.07.2020 01:00:00 18,9 2,8 21 11 - - WSW 1012,2 16
06.07.2020 00:00:00 20,6 3,9 13 7 - - W 1012,3 16
05.07.2020 23:00:00 22,2 0,0 15 8 - - NNW 1011,5 16
05.07.2020 22:00:00 22,8 -3,3 16 9 - - WSW 1010,3 16
05.07.2020 21:00:00 25,0 -2,2 15 8 - - WSW 1009,5 16
05.07.2020 20:00:00 29,4 -2,8 15 8 - - W 1008,7 16
05.07.2020 19:00:00 31,1 -4,4 22 12 - - W 1008,3 16
05.07.2020 18:00:00 32,8 -5,0 - - - - - 1007,4 16
05.07.2020 17:00:00 32,8 1,7 11 6 - - NW 1007,9 16
05.07.2020 16:00:00 32,8 1,7 11 6 - - NNW 1008,5 16
05.07.2020 15:00:00 31,7 2,8 5 3 - - - 1009,2 16
05.07.2020 14:00:00 30,0 3,9 9 5 - - WNW 1010,0 16
05.07.2020 13:00:00 28,9 5,0 13 7 - - NW 1011,0 16
05.07.2020 12:00:00 26,1 5,6 13 7 - - NNE 1012,0 16
05.07.2020 11:00:00 25,6 5,0 - - - - - 1012,4 16
05.07.2020 10:00:00 23,9 5,0 9 5 - - N 1013,1 16
05.07.2020 09:00:00 21,7 5,6 5 3 - - - 1013,7 16
05.07.2020 08:00:00 18,9 1,7 8 4 - - W 1013,6 16
05.07.2020 07:00:00 16,1 2,2 0 0 - - N 1013,5 16
05.07.2020 06:00:00 16,7 0,0 0 0 - - N 1012,1 16
05.07.2020 05:00:00 16,1 0,6 8 4 - - WNW 1011,4 16
05.07.2020 04:00:00 16,1 2,2 9 5 - - N 1011,2 16
05.07.2020 03:00:00 17,8 -0,6 11 6 - - SW 1011,6 16
05.07.2020 02:00:00 18,9 0,6 11 6 - - SW 1011,5 16
05.07.2020 01:00:00 19,4 0,6 16 9 - - W 1012,0 16
05.07.2020 00:00:00 21,7 2,2 11 6 - - WNW 1011,8 16
04.07.2020 23:00:00 22,8 0,0 13 7 - - NNW 1011,4 16
04.07.2020 22:00:00 24,4 -0,6 22 12 - - WSW 1010,4 16
04.07.2020 21:00:00 26,1 0,6 15 8 - - WSW 1009,6 16
04.07.2020 20:00:00 30,0 -0,6 16 9 - - W 1008,8 16
04.07.2020 19:00:00 31,7 -2,2 24 13 - - W 1008,4 16
04.07.2020 18:00:00 32,8 -3,9 21 11 - - W 1008,2 16
04.07.2020 17:00:00 33,3 -1,7 16 9 50 27 SW 1008,8 16
04.07.2020 16:00:00 34,4 -0,6 - - - - - 1008,9 16
04.07.2020 15:00:00 31,1 3,3 - - - - - 1009,8 16
04.07.2020 14:00:00 31,7 6,1 11 6 - - N 1010,4 16
04.07.2020 13:00:00 29,4 7,2 5 3 - - SE 1012,4 16
04.07.2020 12:00:00 26,1 6,1 8 4 - - - 1013,7 16
04.07.2020 11:00:00 25,0 6,1 0 0 - - N 1014,2 16
04.07.2020 10:00:00 22,8 7,2 8 4 - - SSE 1014,9 16
04.07.2020 09:00:00 21,7 6,7 13 7 - - NNW 1015,5 16
04.07.2020 08:00:00 18,9 6,7 11 6 - - NNW 1015,3 16
04.07.2020 07:00:00 16,7 4,4 11 6 - - WNW 1015,1 16
04.07.2020 06:00:00 17,2 4,4 0 0 - - N 1014,4 16
04.07.2020 05:00:00 16,7 3,9 0 0 - - N 1014,6 16
04.07.2020 04:00:00 19,4 2,8 8 4 - - W 1013,6 16
04.07.2020 03:00:00 20,6 3,3 5 3 - - SE 1013,4 16
04.07.2020 02:00:00 21,1 0,6 0 0 - - N 1012,9 16
04.07.2020 01:00:00 19,4 0,6 8 4 - - NNE 1012,5 16
04.07.2020 00:00:00 22,8 -0,6 15 8 - - W 1011,6 16
03.07.2020 23:00:00 24,4 -2,2 22 12 - - SW 1011,7 16
03.07.2020 22:00:00 24,4 -1,7 26 14 - - SW 1011,8 16
03.07.2020 21:00:00 25,0 -1,7 21 11 - - WSW 1011,3 16
03.07.2020 20:00:00 29,4 -2,2 15 8 - - W 1010,9 16
03.07.2020 19:00:00 30,0 -2,2 16 9 - - SW 1010,9 16
03.07.2020 18:00:00 31,1 -1,7 18 10 52 28 WSW 1010,7 16
03.07.2020 17:00:00 32,2 -2,8 13 7 50 27 SW 1010,7 16
03.07.2020 16:00:00 32,2 -3,3 21 11 54 29 SSW 1011,1 16
03.07.2020 15:00:00 33,3 -1,7 26 14 50 27 WSW 1011,0 16
03.07.2020 14:00:00 31,7 -1,1 - - - - - 1011,8 16
03.07.2020 13:00:00 30,0 2,8 5 3 - - - 1012,9 16
03.07.2020 12:00:00 27,8 4,4 9 5 - - ESE 1013,8 16
03.07.2020 11:00:00 26,1 2,2 0 0 - - N 1014,7 16
03.07.2020 10:00:00 23,3 2,2 0 0 - - N 1015,0 16
03.07.2020 09:00:00 20,6 3,9 9 5 - - SE 1015,4 16
03.07.2020 08:00:00 16,1 4,4 - - - - - 1015,8 16
03.07.2020 07:00:00 13,3 2,8 11 6 - - E 1015,3 16
03.07.2020 06:00:00 15,0 2,2 0 0 - - N 1013,9 16
03.07.2020 05:00:00 16,1 2,2 13 7 - - WNW 1013,0 16
03.07.2020 04:00:00 16,1 1,7 0 0 - - N 1012,7 16
03.07.2020 03:00:00 17,8 1,7 5 3 - - SSW 1012,2 16
03.07.2020 02:00:00 18,3 1,7 8 4 - - SW 1012,1 16
03.07.2020 01:00:00 17,8 2,2 11 6 - - SSE 1012,7 16
03.07.2020 00:00:00 19,4 1,7 22 12 - - WSW 1012,8 16
02.07.2020 23:00:00 20,6 1,7 22 12 - - WSW 1012,8 16
02.07.2020 22:00:00 22,8 1,1 13 7 - - WNW 1011,9 16
02.07.2020 21:00:00 24,4 1,7 11 6 - - WSW 1010,4 16
02.07.2020 20:00:00 25,6 2,8 11 6 - - SSW 1009,7 16
02.07.2020 19:00:00 26,7 1,1 35 19 50 27 S 1009,9 16
02.07.2020 18:00:00 28,9 -0,6 22 12 50 27 WSW 1009,3 16
02.07.2020 17:00:00 30,6 -1,1 18 10 - - W 1009,2 16
02.07.2020 16:00:00 27,8 -1,1 15 8 - - S 1009,4 16
02.07.2020 15:00:00 30,6 -0,6 22 12 50 27 SW 1009,0 16
02.07.2020 14:00:00 28,9 2,2 11 6 - - NNW 1009,5 16
02.07.2020 13:00:00 26,1 2,2 5 3 - - - 1010,5 16
02.07.2020 12:00:00 23,9 1,7 0 0 - - N 1010,9 16
02.07.2020 11:00:00 22,8 1,7 8 4 - - - 1010,9 16
02.07.2020 10:00:00 20,6 2,2 5 3 - - NNW 1011,1 16
02.07.2020 09:00:00 19,4 3,3 11 6 - - NNW 1010,8 16
02.07.2020 08:00:00 17,8 2,2 16 9 - - NW 1009,7 16

tt = temperature
td = dewpoint
ff = wind speed
fx = gusts
dd = wind direction
ppp = reduced air pressure
vv = visibility

Next stations